Location: Krasnoyarskiy
(51.1133°N, 71.6497°E)
Time: 22:23:22
(UTC+00:00)

IRS-P3 - Pass Details

Date: 27 September 2022
Orbit: 813 x 819 km, 99.0° (Epoch: 03 December)

Event Time Altitude Azimuth Distance (km) Brightness Sun altitude
Rises 23:59:19 0° 12° (NNE) 3,363 7.7 -11.4°
Reaches altitude 10° 00:01:44 10° 7° (N) 2,426 6.8 -11.0°
Maximum altitude 00:06:52 49° 294° (WNW) 1,057 4.4 -10.2°
Drops below altitude 10° 00:11:58 10° 221° (SW) 2,407 6.1 -9.4°
Enters shadow 00:14:20 - 216° (SW) 3,321 6.9 -9.1°
